#timestamp,LO_Frequency,Hit 
1500332415.0,286047002.6,N
1500332415.9,286047002.6,N
1500332435.7,286046999.9,N
1500332455.6,286047000.2,N
1500332475.4,286047000.9,N
1500332495.3,286047000.8,N
1500332515.1,286047000.5,N
1500332516.0,286047000.5,N
1500332535.8,286047001.2,N
1500332555.7,286046998.1,N
1500332575.5,286046996.6,N
1500332595.3,286046999.1,N
1500332615.2,286046998.8,N
1500332635.0,286047001.1,N
1500332635.9,286047001.1,N
1500332655.8,286047000.6,N
1500332675.6,286046999.1,N
1500332695.4,286046998.1,N
1500332715.3,286046998.3,N
1500332735.1,286047000.2,N
1500332755.9,286047000.6,N
1500332775.7,286047001.2,N
1500332795.5,286046999.7,N
1500332815.4,286046999.9,N
1500332835.2,286047002.4,N
1500332855.0,286047000.9,N
1500332855.9,286047000.9,N
1500332875.8,286046999.8,N
1500332895.6,286046998.1,N
1500332915.5,286047000.6,N
1500332935.3,286047000.6,N
1500332955.1,286047001.6,N
1500332975.9,286047001.6,N
1500332995.7,286047000.4,N
1500333015.5,286046998.1,N
1500333035.4,286047001.0,N
1500333055.2,286046999.5,N
1500333075.1,286047000.0,N
1500333076.0,286047000.0,N
1500333095.8,286047000.5,N
1500333115.6,286046999.9,N
1500333135.5,286047000.2,N
1500333155.3,286047000.0,N
1500333175.1,286047000.1,N
1500333195.9,286046998.3,N
1500333215.7,286046999.8,N
1500333235.6,286046998.1,N
1500333255.4,286046999.8,N
1500333275.2,286047002.7,N
1500333295.1,286047002.6,N
1500333296.0,286047002.6,N
1500333315.8,286047000.5,N
1500333335.7,286047000.3,N
1500333355.5,286047000.9,N
1500333375.3,286046998.6,N
1500333395.2,286046998.2,N
1500333415.0,286047000.1,N
1500333415.9,286047000.1,N
1500333435.8,286046999.7,N
1500333455.6,286047002.6,N
1500333475.4,286047001.9,N
1500333495.3,286047002.4,N
1500333515.1,286047001.4,N
1500333535.8,286047000.1,N
1500333555.7,286047004.3,N
1500333575.5,286047002.6,N
1500333595.4,286047002.6,N
1500333615.2,286046999.8,N
1500333635.0,286047002.1,N
1500333635.9,286047002.1,N
1500333655.8,286047002.4,N
1500333675.6,286047003.9,N
1500333695.4,286047002.0,N
1500333715.3,286047001.6,N
1500333735.1,286047002.4,N
1500333755.9,286047000.1,N
1500333775.7,286046998.6,N
1500333795.5,286046999.8,N
1500333815.4,286047001.9,N
1500333835.2,286047002.3,N
1500333855.0,286046999.8,N
1500333855.9,286046999.8,N
1500333875.8,286047001.8,N
1500333895.6,286047001.6,N
1500333915.5,286047002.5,N
1500333935.3,286047002.5,N
1500333955.1,286047000.2,N
1500333975.9,286047002.7,N
1500333995.7,286047000.4,N
1500334015.6,286047000.1,N
1500334035.4,286047000.3,N
1500334055.2,286046999.9,N
1500334075.1,286047000.0,N
1500334076.0,286047000.0,N
1500334095.8,286046999.9,N
1500334115.6,286047002.8,N
1500334135.5,286047003.8,N
1500334155.3,286047001.3,N
1500334175.2,286046999.9,N
1500334195.9,286046999.8,N
1500334215.7,286047002.8,N
1500334235.6,286047001.7,N
1500334255.4,286047002.7,N
1500334275.2,286047003.8,N
1500334295.1,286047002.2,N
1500334296.0,286047002.2,N
1500334315.8,286047004.4,N
1500334335.7,286047002.7,N
1500334355.5,286047002.1,N
1500334375.3,286047002.5,N
1500334395.2,286047002.1,N
1500334415.0,286047000.1,N
1500334415.9,286047000.1,N
1500334435.8,286047001.9,N
1500334455.6,286047001.5,N
1500334475.4,286047002.9,N
1500334495.3,286047003.5,N
1500334515.1,286047001.3,N
1500334535.8,286047002.7,N
1500334555.7,286047002.8,N
1500334575.5,286047002.6,N
1500334595.4,286047001.7,N
1500334615.2,286047002.8,N
1500334635.0,286047001.5,N
1500334635.9,286047001.5,N
1500334655.8,286047003.9,N
1500334675.6,286047003.6,N
1500334695.4,286047001.4,N
1500334715.3,286047001.8,N
1500334735.1,286047003.5,N
1500334755.9,286047002.2,N
1500334775.7,286046999.7,N
1500334795.5,286047000.2,N
1500334815.4,286046999.8,N
1500334835.2,286047002.0,N
1500334855.0,286046999.8,N
1500334855.9,286046999.8,N
1500334875.8,286047002.4,N
1500334895.6,286047002.7,N
1500334915.5,286047002.7,N
1500334935.3,286047001.6,N
1500334955.1,286047002.2,N
1500334975.9,286047004.0,N
1500334995.7,286047003.5,N
1500335015.5,286047005.2,N
1500335035.4,286047004.8,N
1500335055.2,286047003.1,N
1500335075.1,286047003.3,N
1500335076.0,286047003.3,N
1500335095.8,286047004.2,N
1500335115.6,286047003.6,N
1500335135.5,286047002.2,N
1500335155.3,286047002.7,N
1500335175.1,286047002.2,N
1500335195.9,286047001.3,N
1500335215.7,286047004.1,N
1500335235.6,286047005.4,N
1500335255.4,286047005.7,N
1500335275.2,286047003.4,N
1500335295.1,286047004.0,N
1500335296.0,286047004.0,N
1500335315.8,286047003.8,N
1500335335.6,286047003.9,N
1500335355.5,286047004.4,N
1500335375.3,286047004.0,N
1500335395.2,286047003.8,N
1500335415.9,286047003.3,N
1500335435.7,286047003.1,N
1500335455.6,286047003.1,N
1500335475.4,286047003.0,N
1500335495.2,286047003.2,N
1500335515.1,286047001.4,N
1500335516.0,286047001.4,N
1500335535.8,286047002.9,N
1500335555.7,286047003.4,N
1500335575.5,286047001.3,N
1500335595.3,286047004.2,N
1500335615.2,286047003.0,N
1500335635.0,286047005.2,N
1500335635.9,286047005.2,N
1500335655.8,286047003.3,N
1500335675.6,286047005.9,N
1500335725.5,286047005.7,Y
1500335735.4,286047003.6,N
1500335755.2,286047002.2,N
1500335775.1,286047002.1,N
1500335776.0,286047002.1,N
1500335795.8,286046998.4,N
1500335815.6,286047001.0,N
1500335835.5,286046999.4,N
1500335855.3,286046998.5,N
1500335875.2,286047001.2,N
1500335895.9,286046998.2,N
1500335915.7,286046998.1,N
1500335935.6,286046998.2,N
1500335955.4,286046998.1,N
1500335975.2,286047001.1,N
1500335995.1,286047000.5,N
1500335996.0,286047000.5,N
